ATLAS 5 CENTAUR DEB, 46865

Orbit data source: Space-Track

ATLAS 5 CENTAUR DEB, 46865 is space debris in HEO originally from a launch on Wed, 17 Oct 2018 UTC launched from the Air Force Eastern Test Range (AFETR). Debris objects in space refer to the collection of defunct objects orbiting the Earth. Examples of debris include non-operational satellites, rocket bodies, and fragments generated from explosions, collisions, or faulty payload assembly.

Loading next visibility...
Identifier
46865, 2018-079DW
Orbit
HEO
Country
Flag of USUS
Related business
Flag of USUnited Launch Alliance/Lockheed Martin (US)
Manufacturer
ULA Decatur
Mission
Spacecraft
Bus & Motor
Unknown
Mass
Unknown
Launch date (UTC)
2018-10-17 (8 years ago)
Launch vehicle
Unknown
Launch site
Air Force Eastern Test Range (AFETR)
Object type
Payload
Rocket body
Debris
Shape & HBR
Unknown shape, 1.1 m
Radar Cross Section
RCS unknown

Expand to show TLE details & history
Last TLE update: 1 day ago

TLE from 1 day ago
0 ATLAS 5 CENTAUR DEB
1 46865U 18079DW  26125.74459760 -.00000133  00000-0  00000-0 0  9990
2 46865  13.0729  34.0599 4524629 325.4978  12.1646  1.88839643 37979
Epoch: 2026-05-05T17:52Z
TLE epoch observation values (Epoch: 2026-05-05T17:52:13.232Z)
Latitude
-0°
Longitude
-97.65614°
Altitude
9,633.897 km
Speed
5.947 km/s
True Right ascension
02h 16m 03s
True Declination
0° 00' 00"
Sunlit
Object was in daylight at epoch
Visualization orbit readout
Latitude
Unknown
Longitude
Unknown
Altitude
Unknown
Speed
Unknown
Apparent Right ascension
Unknown
Apparent Declination
Unknown
Sunlit
N/A
Visualization observer readout
Local Sidereal Time
04:29:19
Azimuth
Unknown
Elevation
Unknown
Doppler factor
Unknown
Orbital elements
Apogee altitude
33,783.458 km
Perigee altitude
8,761.639 km
Semi-major axis
27,650.685 km
Eccentricity
0.45246
Inclination
13.0729°
RAAN
34.0599°
Arg. of periapsis
325.4978°
True anomaly
34.80602°
Mean anomaly
12.1646°
Eccentric anomaly
21.78624°
Mean motion
0.47205 °/min
Orbital period
762.64 mins
BSTAR
0
Loading maneuver chart data...
Computing Atmospheric mass density...

Documentation

Showing up to 5 results
|